Weather in Krasny Oktyabr

Russia / Kurgan Oblast     55°39′33″N   64°48′42″E
temp.,
°C
wind,
m/s
gust,
m/s
humid.,
%
clouds,
%
prec.,
mm/h
press.,
hPa
HPBL,
m
22 october, fri
fri2223:00−3wsw39915 0.0 1008196
02:00−3ssw3989100 0.0 1007199
05:00−1ssw51281100 0.0 1005601
08:00−1ssw51396100 0.8 1004662
11:00+2sw5992100 1.2 1004765
14:00+2sw41197100 0.0 1005430
17:00+3ssw41192100 0.0 1005371
20:00+4ssw51395100 0.0 1005425
23 october, sat
sat2323:00+6sw61397100 0.6 1004617
02:00+6sw51590100 0.0 1003535
05:00+6wsw61585100 0.0 1004713
08:00+7wsw716842 0.0 1004620
11:00+10wsw7147610 0.0 1007921
14:00+11wsw71370100 0.0 10081377
17:00+9wsw613725 0.0 1010878
20:00+8wsw615747 0.0 1011725
24 october, sun
sun2423:00+7wsw5148089 0.0 1013659
02:00+6wsw41385100 0.0 1014480
05:00+5wsw31187100 0.0 1015285
08:00+5ssw2893100 0.0 1015192
11:00+8ssw41175100 0.0 1014515
14:00+8s41287100 0.8 1011796
17:00+10ssw71486100 1.8 1009974
20:00+9sw61484100 1.2 1009739
25 october, mon
mon2523:00+8w51171100 1.7 1010844
02:00+5w41280100 0.0 1012664
05:00+4w41083100 0.0 1014502
08:00+2w3886100 0.0 1015352
11:00+5w2370100 0.0 1016475
14:00+6sw2365100 0.0 1015683
17:00+5se1173100 0.0 101414
20:00+4ne2288100 0.8 1012144
26 october, tue
tue2623:00+3ne3594100 0.9 1010284
02:00+2n3597100 0.8 1009385
05:00+1nnw3699100 3.3 1009225
08:00+2nw3997100 1.2 1010390
11:00+1nnw6118588 1.4 1012640
14:00+2nnw69615 0.0 10141144
17:000nnw49630 0.0 1016713
20:00−2nnw39730 0.0 1019347